Time,TemperatureF,DewpointF,PressureIn,WindDirection,WindDirectionDegrees,WindSpeedMPH,WindSpeedGustMPH,Humidity,HourlyPrecipIn,Conditions,Clouds,dailyrainin,SolarRadiationWatts/m^2,SoftwareType,DateUTC
2013-01-18 00:04:00,30.0,29.0,-100.00,North,6,9.0,17.0,97,0.00,,,0.95,0.000000,,2013-01-18 05:04:00,
2013-01-18 00:33:00,30.0,29.0,-100.00,North,6,7.0,15.0,97,0.00,,,0.95,0.000000,,2013-01-18 05:33:00,
2013-01-18 00:43:00,30.0,29.0,-100.00,North,6,7.0,15.0,97,0.00,,,0.95,0.000000,,2013-01-18 05:43:00,
2013-01-18 00:53:00,30.0,29.0,-100.00,North,6,7.0,15.0,97,0.00,,,0.95,0.000000,,2013-01-18 05:53:00,
2013-01-18 01:02:00,30.0,29.0,-100.00,North,6,7.0,15.0,97,0.00,,,0.95,0.000000,,2013-01-18 06:02:00,
2013-01-18 01:33:00,30.0,29.0,-100.00,NNE,21,7.0,12.0,96,0.00,,,0.92,0.000000,,2013-01-18 06:33:00,
2013-01-18 01:43:00,30.0,29.0,-100.00,NNE,21,7.0,12.0,96,0.00,,,0.92,0.000000,,2013-01-18 06:43:00,
2013-01-18 01:53:00,30.0,29.0,-100.00,NNE,21,7.0,12.0,96,0.00,,,0.92,0.000000,,2013-01-18 06:53:00,
2013-01-18 02:02:00,30.0,29.0,-100.00,NNE,21,7.0,12.0,96,0.00,,,0.92,0.000000,,2013-01-18 07:02:00,
2013-01-18 02:33:00,29.0,26.0,-100.00,NNE,22,2.0,9.0,90,0.00,,,0.91,0.000000,,2013-01-18 07:33:00,
2013-01-18 02:42:00,29.0,26.0,-100.00,NNE,22,2.0,9.0,90,0.00,,,0.91,0.000000,,2013-01-18 07:42:00,
2013-01-18 02:52:00,29.0,26.0,-100.00,NNE,22,2.0,9.0,90,0.00,,,0.91,0.000000,,2013-01-18 07:52:00,
2013-01-18 03:02:00,29.0,26.0,-100.00,NNE,22,2.0,9.0,90,0.00,,,0.91,0.000000,,2013-01-18 08:02:00,
2013-01-18 03:33:00,29.0,26.0,-100.00,NNE,12,4.0,10.0,90,0.00,,,0.91,0.000000,,2013-01-18 08:33:00,
2013-01-18 03:43:00,29.0,26.0,-100.00,NNE,12,4.0,10.0,90,0.00,,,0.91,0.000000,,2013-01-18 08:43:00,
2013-01-18 03:53:00,29.0,26.0,-100.00,NNE,12,4.0,10.0,90,0.00,,,0.91,0.000000,,2013-01-18 08:53:00,
2013-01-18 04:03:00,29.0,26.0,-100.00,NNE,12,4.0,10.0,90,0.00,,,0.91,0.000000,,2013-01-18 09:03:00,
2013-01-18 04:33:00,30.0,27.0,-100.00,NNE,23,6.0,15.0,89,0.00,,,0.85,0.000000,,2013-01-18 09:33:00,
2013-01-18 04:43:00,30.0,27.0,-100.00,NNE,23,6.0,15.0,89,0.00,,,0.85,0.000000,,2013-01-18 09:43:00,
2013-01-18 04:53:00,30.0,27.0,-100.00,NNE,23,6.0,15.0,89,0.00,,,0.85,0.000000,,2013-01-18 09:53:00,
2013-01-18 05:03:00,30.0,27.0,-100.00,NNE,23,6.0,15.0,89,0.00,,,0.85,0.000000,,2013-01-18 10:03:00,
2013-01-18 05:33:00,29.0,25.0,-100.00,NNE,17,4.0,10.0,85,0.00,,,0.85,0.000000,,2013-01-18 10:33:00,
2013-01-18 05:43:00,29.0,25.0,-100.00,NNE,17,4.0,10.0,85,0.00,,,0.85,0.000000,,2013-01-18 10:43:00,
2013-01-18 05:53:00,29.0,25.0,-100.00,NNE,17,4.0,10.0,85,0.00,,,0.85,0.000000,,2013-01-18 10:53:00,
2013-01-18 06:03:00,29.0,25.0,-100.00,NNE,17,4.0,10.0,85,0.00,,,0.85,0.000000,,2013-01-18 11:03:00,
2013-01-18 06:33:00,29.0,27.0,-100.00,NNE,26,4.0,8.0,91,0.00,,,0.85,0.000000,,2013-01-18 11:33:00,
2013-01-18 06:43:00,29.0,27.0,-100.00,NNE,26,4.0,8.0,91,0.00,,,0.85,0.000000,,2013-01-18 11:43:00,
2013-01-18 06:53:00,29.0,27.0,-100.00,NNE,26,4.0,8.0,91,0.00,,,0.85,0.000000,,2013-01-18 11:53:00,
2013-01-18 07:03:00,29.0,27.0,-100.00,NNE,26,4.0,8.0,91,0.00,,,0.85,0.000000,,2013-01-18 12:03:00,
2013-01-18 07:33:00,28.0,26.0,-100.00,NE,48,2.0,10.0,92,0.00,,,0.83,0.000000,,2013-01-18 12:33:00,
2013-01-18 07:43:00,28.0,26.0,-100.00,NE,48,2.0,10.0,92,0.00,,,0.83,0.000000,,2013-01-18 12:43:00,
2013-01-18 07:53:00,28.0,26.0,-100.00,NE,48,2.0,10.0,92,0.00,,,0.83,0.000000,,2013-01-18 12:53:00,
2013-01-18 08:03:00,28.0,26.0,-100.00,NE,48,2.0,10.0,92,0.00,,,0.83,0.000000,,2013-01-18 13:03:00,
2013-01-18 08:33:00,27.0,26.0,-100.00,NNE,17,2.0,5.0,95,0.00,,,0.77,4.000000,,2013-01-18 13:33:00,
2013-01-18 08:43:00,27.0,26.0,-100.00,NNE,17,2.0,5.0,95,0.00,,,0.77,4.000000,,2013-01-18 13:43:00,
2013-01-18 08:53:00,27.0,26.0,-100.00,NNE,17,2.0,5.0,95,0.00,,,0.77,4.000000,,2013-01-18 13:53:00,
2013-01-18 09:03:00,27.0,26.0,-100.00,NNE,17,2.0,5.0,95,0.00,,,0.77,4.000000,,2013-01-18 14:03:00,
2013-01-18 09:34:00,33.0,28.0,-100.00,North,9,4.0,10.0,81,0.00,,,0.63,136.000000,,2013-01-18 14:34:00,
2013-01-18 09:43:00,33.0,28.0,-100.00,North,9,4.0,10.0,81,0.00,,,0.63,136.000000,,2013-01-18 14:43:00,
2013-01-18 09:53:00,33.0,28.0,-100.00,North,9,4.0,10.0,81,0.00,,,0.63,136.000000,,2013-01-18 14:53:00,
2013-01-18 10:03:00,33.0,28.0,-100.00,North,9,4.0,10.0,81,0.00,,,0.63,136.000000,,2013-01-18 15:03:00,
2013-01-18 10:34:00,35.0,29.0,-100.00,SE,127,4.0,10.0,79,0.02,,,0.53,341.000000,,2013-01-18 15:34:00,
2013-01-18 10:43:00,35.0,29.0,-100.00,SE,127,4.0,10.0,79,0.02,,,0.53,341.000000,,2013-01-18 15:43:00,
2013-01-18 10:54:00,35.0,29.0,-100.00,SE,127,4.0,10.0,79,0.02,,,0.53,341.000000,,2013-01-18 15:54:00,
2013-01-18 11:03:00,35.0,29.0,-100.00,SE,127,4.0,10.0,79,0.02,,,0.53,341.000000,,2013-01-18 16:03:00,
2013-01-18 11:33:00,38.0,30.0,-100.00,East,93,4.0,8.0,72,0.05,,,0.43,507.000000,,2013-01-18 16:33:00,
2013-01-18 11:43:00,38.0,30.0,-100.00,East,93,4.0,8.0,72,0.05,,,0.43,507.000000,,2013-01-18 16:43:00,
2013-01-18 11:53:00,38.0,30.0,-100.00,East,93,4.0,8.0,72,0.05,,,0.43,507.000000,,2013-01-18 16:53:00,
2013-01-18 12:03:00,38.0,30.0,-100.00,East,93,4.0,8.0,72,0.05,,,0.43,507.000000,,2013-01-18 17:03:00,
2013-01-18 12:34:00,42.0,30.0,-100.00,ESE,123,3.0,8.0,62,0.01,,,0.33,618.000000,,2013-01-18 17:34:00,
2013-01-18 12:43:00,42.0,30.0,-100.00,ESE,123,3.0,8.0,62,0.01,,,0.33,618.000000,,2013-01-18 17:43:00,
2013-01-18 12:53:00,42.0,30.0,-100.00,ESE,123,3.0,8.0,62,0.01,,,0.33,618.000000,,2013-01-18 17:53:00,
2013-01-18 13:03:00,42.0,30.0,-100.00,ESE,123,3.0,8.0,62,0.01,,,0.33,618.000000,,2013-01-18 18:03:00,
2013-01-18 13:34:00,42.0,33.0,-100.00,NNW,335,4.0,7.0,69,0.00,,,0.33,666.000000,,2013-01-18 18:34:00,
2013-01-18 13:44:00,42.0,33.0,-100.00,NNW,335,4.0,7.0,69,0.00,,,0.33,666.000000,,2013-01-18 18:44:00,
2013-01-18 13:53:00,42.0,33.0,-100.00,NNW,335,4.0,7.0,69,0.00,,,0.33,666.000000,,2013-01-18 18:53:00,
2013-01-18 14:03:00,42.0,33.0,-100.00,NNW,335,4.0,7.0,69,0.00,,,0.33,666.000000,,2013-01-18 19:03:00,
2013-01-18 14:33:00,43.0,30.0,-100.00,NNW,328,5.0,10.0,60,0.00,,,0.32,635.000000,,2013-01-18 19:33:00,
2013-01-18 14:43:00,43.0,30.0,-100.00,NNW,328,5.0,10.0,60,0.00,,,0.32,635.000000,,2013-01-18 19:43:00,
2013-01-18 14:53:00,43.0,30.0,-100.00,NNW,328,5.0,10.0,60,0.00,,,0.32,635.000000,,2013-01-18 19:53:00,
2013-01-18 15:03:00,43.0,30.0,-100.00,NNW,328,5.0,10.0,60,0.00,,,0.32,635.000000,,2013-01-18 20:03:00,
2013-01-18 15:33:00,44.0,30.0,-100.00,NNW,348,4.0,9.0,58,0.00,,,-99.99,543.000000,,2013-01-18 20:33:00,
2013-01-18 15:43:00,44.0,30.0,-100.00,NNW,348,4.0,9.0,58,0.00,,,-99.99,543.000000,,2013-01-18 20:43:00,
2013-01-18 15:53:00,44.0,30.0,-100.00,NNW,348,4.0,9.0,58,0.00,,,-99.99,543.000000,,2013-01-18 20:53:00,
2013-01-18 16:03:00,44.0,30.0,-100.00,NNW,348,4.0,9.0,58,0.00,,,-99.99,543.000000,,2013-01-18 21:03:00,
2013-01-18 16:33:00,45.0,30.0,-100.00,North,357,4.0,10.0,56,0.00,,,0.08,391.000000,,2013-01-18 21:33:00,
2013-01-18 16:43:00,45.0,30.0,-100.00,North,357,4.0,10.0,56,0.00,,,0.08,391.000000,,2013-01-18 21:43:00,
2013-01-18 16:53:00,45.0,30.0,-100.00,North,357,4.0,10.0,56,0.00,,,0.08,391.000000,,2013-01-18 21:53:00,
2013-01-18 17:03:00,45.0,30.0,-100.00,North,357,4.0,10.0,56,0.00,,,0.08,391.000000,,2013-01-18 22:03:00,
2013-01-18 17:33:00,45.0,29.0,-100.00,North,356,3.0,6.0,54,0.00,,,0.08,206.000000,,2013-01-18 22:33:00,
2013-01-18 17:43:00,45.0,29.0,-100.00,North,356,3.0,6.0,54,0.00,,,0.08,206.000000,,2013-01-18 22:43:00,
2013-01-18 17:53:00,45.0,29.0,-100.00,North,356,3.0,6.0,54,0.00,,,0.08,206.000000,,2013-01-18 22:53:00,
2013-01-18 18:03:00,45.0,29.0,-100.00,North,356,3.0,6.0,54,0.00,,,0.08,206.000000,,2013-01-18 23:03:00,
2013-01-18 18:33:00,35.0,29.0,-100.00,North,2,2.0,5.0,79,0.00,,,0.08,30.000000,,2013-01-18 23:33:00,
2013-01-18 18:43:00,35.0,29.0,-100.00,North,2,2.0,5.0,79,0.00,,,0.08,30.000000,,2013-01-18 23:43:00,
2013-01-18 18:53:00,35.0,29.0,-100.00,North,2,2.0,5.0,79,0.00,,,0.08,30.000000,,2013-01-18 23:53:00,
2013-01-18 19:02:00,35.0,29.0,-100.00,North,2,2.0,5.0,79,0.00,,,0.08,30.000000,,2013-01-19 00:02:00,
2013-01-18 19:33:00,30.0,28.0,-100.00,NW,316,1.0,3.0,94,0.00,,,0.08,0.000000,,2013-01-19 00:33:00,
2013-01-18 19:43:00,30.0,28.0,-100.00,NW,316,1.0,3.0,94,0.00,,,0.08,0.000000,,2013-01-19 00:43:00,
2013-01-18 19:53:00,30.0,28.0,-100.00,NW,316,1.0,3.0,94,0.00,,,0.08,0.000000,,2013-01-19 00:53:00,
2013-01-18 20:03:00,30.0,28.0,-100.00,NW,316,1.0,3.0,94,0.00,,,0.08,0.000000,,2013-01-19 01:03:00,
2013-01-18 20:33:00,30.0,28.0,-100.00,NW,311,1.0,2.0,94,0.00,,,0.08,0.000000,,2013-01-19 01:33:00,
2013-01-18 20:43:00,30.0,28.0,-100.00,NW,311,1.0,2.0,94,0.00,,,0.08,0.000000,,2013-01-19 01:43:00,
2013-01-18 20:53:00,30.0,28.0,-100.00,NW,311,1.0,2.0,94,0.00,,,0.08,0.000000,,2013-01-19 01:53:00,
2013-01-18 21:03:00,30.0,28.0,-100.00,NW,311,1.0,2.0,94,0.00,,,0.08,0.000000,,2013-01-19 02:03:00,
2013-01-18 21:33:00,29.0,28.0,-100.00,SW,226,1.0,3.0,95,0.00,,,0.08,0.000000,,2013-01-19 02:33:00,
2013-01-18 21:43:00,29.0,28.0,-100.00,SW,226,1.0,3.0,95,0.00,,,0.08,0.000000,,2013-01-19 02:43:00,
2013-01-18 21:53:00,29.0,28.0,-100.00,SW,226,1.0,3.0,95,0.00,,,0.08,0.000000,,2013-01-19 02:53:00,
2013-01-18 22:03:00,29.0,28.0,-100.00,SW,226,1.0,3.0,95,0.00,,,0.08,0.000000,,2013-01-19 03:03:00,
2013-01-18 22:33:00,29.0,28.0,-100.00,North,5,1.0,2.0,97,0.00,,,0.08,0.000000,,2013-01-19 03:33:00,
2013-01-18 22:44:00,29.0,28.0,-100.00,North,5,1.0,2.0,97,0.00,,,0.08,0.000000,,2013-01-19 03:44:00,
2013-01-18 22:53:00,29.0,28.0,-100.00,North,5,1.0,2.0,97,0.00,,,0.08,0.000000,,2013-01-19 03:53:00,
2013-01-18 23:02:00,29.0,28.0,-100.00,North,5,1.0,2.0,97,0.00,,,0.08,0.000000,,2013-01-19 04:02:00,
2013-01-18 23:33:00,29.0,28.0,-100.00,WNW,300,2.0,3.0,97,0.00,,,0.08,0.000000,,2013-01-19 04:33:00,
2013-01-18 23:43:00,29.0,28.0,-100.00,WNW,300,2.0,3.0,97,0.00,,,0.08,0.000000,,2013-01-19 04:43:00,
2013-01-18 23:53:00,29.0,28.0,-100.00,WNW,300,2.0,3.0,97,0.00,,,0.08,0.000000,,2013-01-19 04:53:00,